FW3803 Weather Reports


Display with metric or nautical units.
time (UTC)temp
F
wind
direction
speed
MPH
gust
MPH
rain 1hr
in
rain 24hr
in
rain mn
in
humidity
%
barometer
mb
20260904005016 82 0.0 0.0 0.00 0.00 0.00 91 1025.5
20260904004536 82 0.0 0.0 0.00 0.00 0.00 90 1025.4
20260904004016 82 0.0 0.0 0.00 0.00 0.00 90 1025.4
20260904003516 83 0.0 0.0 0.00 0.00 0.00 89 1025.4
20260904003016 83 0.0 0.0 0.00 0.00 0.00 89 1025.3
20260904002516 83 0.0 0.0 0.00 0.00 0.00 89 1025.2
20260904002016 83 0.0 0.0 0.00 0.00 0.00 88 1025.1
20260904001516 84 0.0 0.0 0.00 0.00 0.00 88 1024.9
20260904001016 84 0.0 0.0 0.00 0.00 0.00 87 1024.7
20260904000516 84 0.0 0.0 0.00 0.00 0.00 86 1024.7
20260904000016 84 0.0 0.0 0.00 0.00 0.00 86 1024.7
20260903235536 85 0.0 0.0 0.00 0.00 0.00 86 1024.6
20260903235016 85 0.0 0.0 0.00 0.00 0.00 86 1024.5
20260903234536 85 0.0 0.0 0.00 0.00 0.00 85 1024.4
20260903234036 86 0.0 0.0 0.00 0.00 0.00 85 1024.3
20260903233516 86 0.0 0.0 0.00 0.00 0.00 83 1024.4
20260903233016 86 0.0 0.0 0.00 0.00 0.00 84 1024.4
20260903232516 86 0.0 0.0 0.00 0.00 0.00 83 1024.3
20260903232016 87 0.0 0.0 0.00 0.00 0.00 82 1024.4
20260903231516 87 0.0 0.0 0.00 0.00 0.00 82 1024.5
20260903231016 87 0.0 0.0 0.00 0.00 0.00 82 1024.4
20260903230522 87 0.0 0.0 0.00 0.00 0.00 82 1024.2
20260903230016 87 0.0 0.0 0.00 0.00 0.00 82 1024.2
20260903225516 87 0.0 0.0 0.00 0.00 0.00 82 1024.2
20260903225036 87 0.0 1.0 0.00 0.00 0.00 81 1024.2
20260903224516 87 0.0 0.0 0.00 0.00 0.00 79 1024.3
20260903224016 87 0.0 0.0 0.00 0.00 0.00 80 1024.2
20260903223516 87 0.0 0.0 0.00 0.00 0.00 79 1024.0
20260903223016 87 0.0 0.0 0.00 0.00 0.00 78 1024.0
20260903222516 87 0.0 0.0 0.00 0.00 0.00 77 1024.2
20260903222016 87 0.0 0.0 0.00 0.00 0.00 77 1024.3
20260903221516 87 0.0 0.0 0.00 0.00 0.00 75 1024.3
20260903221016 87 0.0 0.0 0.00 0.00 0.00 74 1024.4
20260903220516 87 0.0 0.0 0.00 0.00 0.00 74 1024.5
20260903220016 88 0.0 0.0 0.00 0.00 0.00 74 1024.6
20260903215516 88 0.0 0.0 0.00 0.00 0.00 70 1024.6
20260903215016 88 0.0 0.0 0.00 0.00 0.00 69 1024.5
20260903214516 89 0.0 0.0 0.00 0.00 0.00 69 1024.5
20260903214016 89 0.0 0.0 0.00 0.00 0.00 68 1024.4
20260903213536 89 0.0 0.0 0.00 0.00 0.00 67 1024.5
20260903213016 90 0.0 0.0 0.00 0.00 0.00 67 1024.6
20260903212516 90 0.0 0.0 0.00 0.00 0.00 66 1024.5
20260903212036 91 0.0 0.0 0.00 0.00 0.00 64 1024.5
20260903211516 91 0.0 1.0 0.00 0.00 0.00 65 1024.7
20260903211016 91 0.0 0.0 0.00 0.00 0.00 64 1024.7
20260903210516 91 0.0 0.0 0.00 0.00 0.00 65 1024.7
20260903210016 92 0.0 0.0 0.00 0.00 0.00 62 1024.8
20260903205516 92 0.0 1.0 0.00 0.00 0.00 61 1024.9
20260903205016 92 0.0 1.0 0.00 0.00 0.00 64 1024.9
20260903204536 93 0.0 1.0 0.00 0.00 0.00 63 1024.9
20260903204036 93 0.0 1.0 0.00 0.00 0.00 60 1024.9
20260903203516 93 0.0 1.0 0.00 0.00 0.00 59 1025.0
20260903203016 93 135 2.0 6.0 0.00 0.00 0.00 56 1025.0
20260903202516 93 158 1.0 6.0 0.00 0.00 0.00 58 1025.1
20260903202036 93 135 1.0 4.0 0.00 0.00 0.00 57 1025.1
20260903201516 93 0.0 1.0 0.00 0.00 0.00 59 1025.2
20260903201016 93 158 1.0 2.0 0.00 0.00 0.00 58 1025.2
20260903200516 93 158 1.0 4.0 0.00 0.00 0.00 59 1025.5
20260903200016 93 158 1.0 4.0 0.00 0.00 0.00 60 1025.4
20260903195516 93 158 1.0 2.0 0.00 0.00 0.00 61 1025.5
20260903195016 93 0.0 2.0 0.00 0.00 0.00 60 1025.6
20260903194516 92 135 1.0 3.0 0.00 0.00 0.00 62 1025.6
20260903194016 92 0.0 3.0 0.00 0.00 0.00 62 1025.7
20260903193516 92 0.0 1.0 0.00 0.00 0.00 65 1025.8
20260903193016 92 0.0 2.0 0.00 0.00 0.00 64 1025.8
20260903192536 92 0.0 2.0 0.00 0.00 0.00 66 1025.8
20260903192036 91 0.0 0.0 0.00 0.00 0.00 67 1025.9
20260903191516 92 0.0 0.0 0.00 0.00 0.00 64 1025.9
20260903191016 92 0.0 0.0 0.00 0.00 0.00 62 1026.0
20260903190516 91 0.0 1.0 0.00 0.00 0.00 63 1026.0
20260903190016 92 0.0 1.0 0.00 0.00 0.00 64 1026.0
20260903185516 92 135 1.0 4.0 0.00 0.00 0.00 66 1026.1
20260903185016 92 0.0 2.0 0.00 0.00 0.00 63 1026.2
20260903184516 92 0.0 3.0 0.00 0.00 0.00 61 1026.3
20260903184016 92 0.0 1.0 0.00 0.00 0.00 61 1026.3
20260903183517 92 135 2.0 4.0 0.00 0.00 0.00 62 1026.4
20260903183016 92 135 1.0 3.0 0.00 0.00 0.00 66 1026.4
20260903182516 92 0.0 1.0 0.00 0.00 0.00 65 1026.5
20260903182016 92 0.0 1.0 0.00 0.00 0.00 65 1026.5
20260903181516 93 0.0 2.0 0.00 0.00 0.00 65 1026.6
20260903181016 93 135 2.0 5.0 0.00 0.00 0.00 64 1026.6
20260903180536 93 158 2.0 5.0 0.00 0.00 0.00 64 1026.7
20260903180016 92 113 1.0 2.0 0.00 0.00 0.00 64 1026.7
20260903175516 92 0.0 3.0 0.00 0.00 0.00 65 1026.7
20260903175016 92 135 1.0 3.0 0.00 0.00 0.00 64 1026.8
20260903174516 92 135 2.0 3.0 0.00 0.00 0.00 63 1026.8
20260903174016 92 158 1.0 3.0 0.00 0.00 0.00 66 1026.9
20260903173516 92 0.0 1.0 0.00 0.00 0.00 65 1026.9
20260903173016 92 158 1.0 3.0 0.00 0.00 0.00 66 1027.0
20260903172516 92 0.0 3.0 0.00 0.00 0.00 65 1026.9
20260903172016 92 135 1.0 2.0 0.00 0.00 0.00 64 1027.0
20260903171516 93 135 1.0 3.0 0.00 0.00 0.00 66 1026.9
20260903171016 93 0.0 1.0 0.00 0.00 0.00 65 1027.0
20260903170516 93 135 1.0 3.0 0.00 0.00 0.00 65 1027.2
20260903170036 93 0.0 2.0 0.00 0.00 0.00 64 1027.2
20260903165516 92 158 1.0 3.0 0.00 0.00 0.00 66 1027.2
20260903165016 93 158 1.0 3.0 0.00 0.00 0.00 63 1027.2
20260903164536 93 135 1.0 4.0 0.00 0.00 0.00 65 1027.3
20260903164016 93 0.0 1.0 0.00 0.00 0.00 65 1027.4
20260903163516 93 135 1.0 2.0 0.00 0.00 0.00 64 1027.4
20260903163016 93 135 2.0 4.0 0.00 0.00 0.00 64 1027.5
20260903162516 93 135 1.0 3.0 0.00 0.00 0.00 64 1027.6
20260903162016 93 135 2.0 5.0 0.00 0.00 0.00 61 1027.6
20260903161516 94 0.0 2.0 0.00 0.00 0.00 64 1027.7
20260903161016 93 135 1.0 2.0 0.00 0.00 0.00 63 1027.7
20260903160516 93 135 1.0 3.0 0.00 0.00 0.00 63 1027.8
20260903160016 93 158 1.0 4.0 0.00 0.00 0.00 63 1027.8
20260903155516 93 135 1.0 4.0 0.00 0.00 0.00 61 1027.8
20260903155016 93 0.0 1.0 0.00 0.00 0.00 64 1027.9
20260903154516 93 158 1.0 3.0 0.00 0.00 0.00 65 1027.9
20260903154016 93 0.0 2.0 0.00 0.00 0.00 66 1028.0
20260903153516 92 0.0 2.0 0.00 0.00 0.00 67 1028.0
20260903153016 91 158 1.0 3.0 0.00 0.00 0.00 67 1028.0
20260903152536 91 0.0 1.0 0.00 0.00 0.00 68 1027.9
20260903152016 91 0.0 2.0 0.00 0.00 0.00 69 1028.0
20260903151516 90 0.0 1.0 0.00 0.00 0.00 71 1027.8
20260903151016 90 135 1.0 2.0 0.00 0.00 0.00 72 1027.7
20260903150516 89 0.0 1.0 0.00 0.00 0.00 72 1027.7
20260903150016 89 135 1.0 4.0 0.00 0.00 0.00 70 1027.6
20260903145516 89 0.0 1.0 0.00 0.00 0.00 73 1027.6
20260903144516 89 0.0 1.0 0.00 0.00 0.00 73 1027.6
20260903144016 88 0.0 0.0 0.00 0.00 0.00 72 1027.5
20260903143516 88 0.0 0.0 0.00 0.00 0.00 73 1027.5
20260903143016 87 0.0 1.0 0.00 0.00 0.00 74 1027.5
20260903142516 87 0.0 1.0 0.00 0.00 0.00 76 1027.5
20260903142016 86 0.0 1.0 0.00 0.00 0.00 74 1027.3
20260903141516 86 0.0 2.0 0.00 0.00 0.00 76 1027.5
20260903141036 86 135 1.0 3.0 0.00 0.00 0.00 77 1027.5
20260903140516 85 0.0 1.0 0.00 0.00 0.00 78 1027.4
20260903140016 85 135 1.0 2.0 0.00 0.00 0.00 77 1027.4
20260903135516 84 0.0 2.0 0.00 0.00 0.00 79 1027.5
20260903135016 84 0.0 2.0 0.00 0.00 0.00 79 1027.4
20260903134516 84 0.0 1.0 0.00 0.00 0.00 79 1027.4
20260903134016 83 0.0 1.0 0.00 0.00 0.00 81 1027.4
20260903133516 83 0.0 1.0 0.00 0.00 0.00 80 1027.4
20260903133016 83 0.0 1.0 0.00 0.00 0.00 83 1027.5
20260903132536 83 0.0 1.0 0.00 0.00 0.00 82 1027.5
20260903132016 82 0.0 1.0 0.00 0.00 0.00 83 1027.7
20260903131516 81 0.0 1.0 0.00 0.00 0.00 86 1027.8
20260903131016 81 0.0 1.0 0.00 0.00 0.00 86 1027.8
20260903130536 80 0.0 0.0 0.00 0.00 0.00 87 1027.7
20260903130016 80 0.0 0.0 0.00 0.00 0.00 89 1027.7
20260903125516 79 0.0 2.0 0.00 0.00 0.00 90 1027.8
20260903125016 78 0.0 1.0 0.00 0.00 0.00 92 1027.7
20260903124516 77 0.0 0.0 0.00 0.00 0.00 93 1027.9
20260903124016 76 0.0 0.0 0.00 0.00 0.00 93 1027.9
20260903123536 76 0.0 0.0 0.00 0.00 0.00 94 1027.8
20260903123016 75 0.0 0.0 0.00 0.00 0.00 94 1027.7
20260903122536 75 0.0 0.0 0.00 0.00 0.00 95 1027.6
20260903122036 74 0.0 0.0 0.00 0.00 0.00 95 1027.6
20260903121516 74 0.0 0.0 0.00 0.00 0.00 95 1027.7
20260903121016 73 0.0 0.0 0.00 0.00 0.00 95 1027.6
20260903120516 73 0.0 0.0 0.00 0.00 0.00 95 1027.6
20260903120016 72 0.0 0.0 0.00 0.00 0.00 95 1027.6
20260903115516 72 0.0 0.0 0.00 0.00 0.00 95 1027.5
20260903115016 72 0.0 0.0 0.00 0.00 0.00 95 1027.6
20260903114516 72 0.0 0.0 0.00 0.00 0.00 95 1027.6
20260903114017 72 0.0 0.0 0.00 0.00 0.00 95 1027.4
20260903113516 72 0.0 0.0 0.00 0.00 0.00 95 1027.4
20260903113016 72 0.0 0.0 0.00 0.00 0.00 95 1027.3
20260903112516 72 0.0 0.0 0.00 0.00 0.00 95 1027.3
20260903112016 72 0.0 0.0 0.00 0.00 0.00 95 1027.4
20260903111516 72 0.0 0.0 0.00 0.00 0.00 95 1027.3
20260903111016 72 0.0 0.0 0.00 0.00 0.00 95 1027.2
20260903110516 71 0.0 0.0 0.00 0.00 0.00 95 1027.1
20260903110016 71 0.0 0.0 0.00 0.00 0.00 95 1027.1
20260903105517 71 0.0 0.0 0.00 0.00 0.00 95 1027.0
20260903105016 71 0.0 0.0 0.00 0.00 0.00 95 1026.9
20260903104516 71 0.0 0.0 0.00 0.00 0.00 95 1026.9
20260903104016 71 0.0 0.0 0.00 0.00 0.00 95 1026.8
20260903103516 71 0.0 0.0 0.00 0.00 0.00 95 1026.8
20260903103037 71 0.0 0.0 0.00 0.00 0.00 95 1026.9
20260903102516 72 0.0 0.0 0.00 0.00 0.00 95 1026.9
20260903102016 72 0.0 0.0 0.00 0.00 0.00 95 1026.9
20260903101516 72 0.0 0.0 0.00 0.00 0.00 95 1026.9
20260903101016 72 0.0 0.0 0.00 0.00 0.00 95 1027.1
20260903100516 72 0.0 0.0 0.00 0.00 0.00 95 1027.0
20260903100016 72 0.0 0.0 0.00 0.00 0.00 95 1027.2
20260903095516 72 0.0 0.0 0.00 0.00 0.00 95 1026.9
20260903095036 72 0.0 0.0 0.00 0.00 0.00 95 1026.9
20260903094516 72 0.0 0.0 0.00 0.00 0.00 95 1026.9
20260903094016 72 0.0 0.0 0.00 0.00 0.00 95 1026.9
20260903093516 72 0.0 0.0 0.00 0.00 0.00 95 1027.0
20260903093036 72 0.0 0.0 0.00 0.00 0.00 95 1027.0
20260903092516 72 0.0 0.0 0.00 0.00 0.00 95 1026.9
20260903092016 72 0.0 0.0 0.00 0.00 0.00 95 1026.8
20260903091516 72 0.0 0.0 0.00 0.00 0.00 95 1026.8
20260903091016 72 0.0 0.0 0.00 0.00 0.00 95 1026.8
20260903090516 72 0.0 0.0 0.00 0.00 0.00 95 1026.8
20260903090016 72 0.0 0.0 0.00 0.00 0.00 95 1026.8
20260903085516 72 0.0 0.0 0.00 0.00 0.00 95 1026.8
20260903085036 72 0.0 0.0 0.00 0.00 0.00 95 1026.8
20260903084536 72 0.0 0.0 0.00 0.00 0.00 95 1026.9
20260903084016 72 0.0 0.0 0.00 0.00 0.00 95 1026.8
20260903083516 72 0.0 0.0 0.00 0.00 0.00 94 1026.8
20260903083015 72 0.0 0.0 0.00 0.00 0.00 94 1026.9
20260903082515 72 0.0 0.0 0.00 0.00 0.00 94 1026.8
20260903082036 72 0.0 0.0 0.00 0.00 0.00 94 1026.8
20260903081536 72 0.0 0.0 0.00 0.00 0.00 94 1026.9
20260903081016 72 0.0 0.0 0.00 0.00 0.00 94 1026.9
20260903080515 72 0.0 0.0 0.00 0.00 0.00 94 1026.9
20260903080036 72 0.0 0.0 0.00 0.00 0.00 94 1027.0
20260903075516 72 0.0 0.0 0.00 0.00 0.00 94 1027.0
20260903075016 73 0.0 0.0 0.00 0.00 0.00 94 1026.9
20260903074516 73 0.0 0.0 0.00 0.00 0.00 94 1026.9
20260903074016 73 0.0 0.0 0.00 0.00 0.00 94 1027.0
20260903073516 73 0.0 0.0 0.00 0.00 0.00 94 1027.1
20260903073016 73 0.0 0.0 0.00 0.00 0.00 94 1027.1
20260903072516 73 0.0 0.0 0.00 0.00 0.00 94 1027.0
20260903072016 73 0.0 0.0 0.00 0.00 0.00 94 1027.1
20260903071515 73 0.0 0.0 0.00 0.00 0.00 94 1027.1
20260903071016 73 0.0 0.0 0.00 0.00 0.00 94 1027.1
20260903070516 73 0.0 0.0 0.00 0.00 0.00 94 1027.1
20260903070016 73 0.0 0.0 0.00 0.00 0.00 94 1027.1
20260903065556 73 0.0 0.0 0.00 0.00 0.00 94 1027.0
20260903065016 73 0.0 0.0 0.00 0.00 0.00 94 1027.1
20260903064515 73 0.0 0.0 0.00 0.00 0.00 94 1027.1
20260903064016 73 0.0 0.0 0.00 0.00 0.00 94 1027.1
20260903063516 73 0.0 0.0 0.00 0.00 0.00 94 1027.1
20260903063016 73 0.0 0.0 0.00 0.00 0.00 94 1027.1
20260903062536 73 0.0 0.0 0.00 0.00 0.00 94 1027.2
20260903062026 73 0.0 0.0 0.00 0.00 0.00 94 1027.2
20260903061516 73 0.0 0.0 0.00 0.00 0.00 94 1027.1
20260903061035 73 0.0 0.0 0.00 0.00 0.00 94 1027.2
20260903060516 73 0.0 0.0 0.00 0.00 0.00 94 1027.4
20260903060016 73 0.0 0.0 0.00 0.00 0.00 94 1027.5
20260903055516 73 0.0 0.0 0.00 0.00 0.00 94 1027.3
20260903055016 73 0.0 0.0 0.00 0.00 0.00 94 1027.7
20260903054515 74 0.0 0.0 0.00 0.00 0.00 94 1027.6
20260903054016 74 0.0 0.0 0.00 0.00 0.00 94 1027.8
20260903053516 74 0.0 0.0 0.00 0.00 0.00 94 1027.8
20260903053016 74 0.0 0.0 0.00 0.00 0.00 94 1027.5
20260903052516 74 0.0 0.0 0.00 0.00 0.00 94 1027.6
20260903052016 74 0.0 0.0 0.00 0.00 0.00 94 1027.5
20260903051516 74 0.0 0.0 0.00 0.00 0.00 94 1027.4
20260903051016 74 0.0 0.0 0.00 0.00 0.00 94 1027.5
20260903050516 74 0.0 0.0 0.00 0.00 0.00 94 1027.4
20260903050016 74 0.0 0.0 0.00 0.00 0.00 94 1027.5
20260903045516 74 0.0 0.0 0.00 0.00 0.00 94 1027.5
20260903045016 74 0.0 0.0 0.00 0.00 0.00 93 1027.3
20260903044517 74 0.0 0.0 0.00 0.00 0.00 93 1027.2
20260903044015 74 0.0 0.0 0.00 0.00 0.00 93 1027.3
20260903043515 74 0.0 0.0 0.00 0.00 0.00 93 1027.2
20260903043016 74 0.0 0.0 0.00 0.00 0.00 93 1027.3
20260903042536 74 0.0 0.0 0.00 0.00 0.00 93 1027.4
20260903042016 74 0.0 0.0 0.00 0.00 0.00 93 1027.4
20260903041516 74 0.0 0.0 0.00 0.00 0.00 93 1027.3
20260903041016 74 0.0 0.0 0.00 0.00 0.00 93 1027.2
20260903040516 75 0.0 0.0 0.00 0.00 0.00 93 1027.4
20260903040015 75 0.0 0.0 0.00 0.00 0.00 93 1027.3
20260903035516 75 0.0 0.0 0.00 0.00 0.00 93 1027.3
20260903035056 75 0.0 0.0 0.00 0.00 0.00 93 1027.2
20260903034516 75 0.0 0.0 0.00 0.00 0.00 94 1027.3
20260903034036 75 0.0 0.0 0.00 0.00 0.00 94 1027.3
20260903033516 75 0.0 0.0 0.00 0.00 0.00 94 1027.3
20260903033036 75 0.0 0.0 0.00 0.00 0.00 94 1027.3
20260903032516 75 0.0 0.0 0.00 0.00 0.00 93 1027.2
20260903032016 75 0.0 0.0 0.00 0.00 0.00 93 1027.2
20260903031516 75 0.0 0.0 0.00 0.00 0.00 93 1027.3
20260903031016 75 0.0 0.0 0.00 0.00 0.00 93 1027.4
20260903030516 75 0.0 0.0 0.00 0.00 0.00 93 1027.4
20260903030036 75 0.0 0.0 0.00 0.00 0.00 93 1027.5
20260903025516 75 0.0 0.0 0.00 0.00 0.00 93 1027.5
20260903025016 75 0.0 0.0 0.00 0.00 0.00 93 1027.5
20260903024516 75 0.0 0.0 0.00 0.00 0.00 93 1027.5
20260903024016 75 0.0 0.0 0.00 0.00 0.00 93 1027.5
20260903023516 75 0.0 0.0 0.00 0.00 0.00 93 1027.6
20260903023016 75 0.0 0.0 0.00 0.00 0.00 93 1027.7
20260903022516 75 0.0 0.0 0.00 0.00 0.00 93 1027.9
20260903022016 75 0.0 0.0 0.00 0.00 0.00 93 1027.8
20260903021516 76 0.0 0.0 0.00 0.00 0.00 93 1027.8
20260903021016 76 0.0 0.0 0.00 0.00 0.00 93 1027.8
20260903020516 76 0.0 0.0 0.00 0.00 0.00 92 1027.8
20260903020016 76 0.0 0.0 0.00 0.00 0.00 92 1027.8
20260903015516 76 0.0 0.0 0.00 0.00 0.00 92 1027.8
20260903015016 76 0.0 0.0 0.00 0.00 0.00 92 1027.9
20260903014516 76 0.0 0.0 0.00 0.00 0.00 92 1027.8
20260903014016 76 0.0 0.0 0.00 0.00 0.00 92 1027.9
20260903013516 77 0.0 0.0 0.00 0.00 0.00 92 1028.0
20260903013136 77 0.0 0.0 0.00 0.00 0.00 92 1027.8
20260903012536 77 0.0 0.0 0.00 0.00 0.00 92 1027.7
20260903012016 77 0.0 0.0 0.00 0.00 0.00 91 1027.5
20260903011516 77 0.0 0.0 0.00 0.00 0.00 91 1027.4
20260903011016 77 0.0 0.0 0.00 0.00 0.00 91 1027.4
20260903010536 77 0.0 0.0 0.00 0.00 0.00 91 1027.4
20260903010016 77 0.0 0.0 0.00 0.00 0.00 92 1027.3
20260903005516 77 0.0 2.0 0.00 0.00 0.00 92 1027.3